CT2IRK-11 Weather Reports


time (UTC)temp
C
wind
direction
speed
KPH
gust
KPH
rain 1hr
cm
rain 24hr
cm
rain mn
cm
humidity
%
barometer
mb
20260902130005 33 336 6.4 9.7 0.00 0.00 0.00 36 1012.6
20260902125005 33 352 3.2 11.3 0.00 0.00 0.00 39 1012.7
20260902124005 32 270 1.6 11.3 0.00 0.00 0.00 42 1012.7
20260902123004 32 249 4.8 11.3 0.00 0.00 0.00 42 1013.1
20260902122005 32 289 8.0 9.7 0.00 0.00 0.00 41 1013.1
20260902121005 32 13 1.6 11.3 0.00 0.00 0.00 44 1013.2
20260902120004 31 53 3.2 8.0 0.00 0.00 0.00 46 1013.3
20260902115004 31 274 8.0 9.7 0.00 0.00 0.00 45 1013.5
20260902114005 30 38 6.4 11.3 0.00 0.00 0.00 48 1013.5
20260902113004 30 351 8.0 11.3 0.00 0.00 0.00 49 1013.6
20260902111005 29 15 6.4 9.7 0.00 0.00 0.00 51 1013.7
20260902110008 28 322 6.4 11.3 0.00 0.00 0.00 55 1013.8
20260902105004 27 11 8.0 11.3 0.00 0.00 0.00 56 1013.9
20260902104005 27 44 8.0 12.9 0.00 0.00 0.00 57 1013.9
20260902102005 26 25 8.0 11.3 0.00 0.00 0.00 60 1014.0
20260902100004 25 52 8.0 14.5 0.00 0.00 0.00 66 1014.0
20260902095005 24 29 9.7 14.5 0.00 0.00 0.00 68 1013.9
20260902094004 24 81 8.0 12.9 0.00 0.00 0.00 68 1013.9
20260902092005 23 60 11.3 16.1 0.00 0.00 0.00 72 1013.8
20260902091004 23 64 11.3 16.1 0.00 0.00 0.00 74 1013.6
20260902090005 23 51 11.3 14.5 0.00 0.00 0.00 74 1013.6
20260902085005 22 50 12.9 14.5 0.00 0.00 0.00 77 1013.7
20260902084004 22 76 11.3 14.5 0.00 0.00 0.00 75 1013.7
20260902083004 22 72 9.7 12.9 0.00 0.00 0.00 75 1013.7
20260902082005 22 356 0.0 0.0 0.00 0.00 0.00 77 1013.5
20260902081004 22 348 0.0 0.0 0.00 0.00 0.00 76 1013.5
20260902080004 22 37 0.0 0.0 0.00 0.00 0.00 76 1013.6
20260902075004 21 208 0.0 0.0 0.00 0.00 0.00 76 1013.4
20260902073004 18 270 0.0 0.0 0.00 0.00 0.00 88 1013.3
20260902071005 17 219 0.0 0.0 0.00 0.00 0.00 97 1013.1
20260902070007 16 225 0.0 0.0 0.00 0.00 0.00 99 1012.9
20260902065005 15 224 0.0 0.0 0.00 0.00 0.00 99 1012.7
20260902064006 14 215 0.0 0.0 0.00 0.00 0.00 99 1012.7
20260902063006 14 238 0.0 0.0 0.00 0.00 0.00 99 1012.4
20260902062005 14 225 0.0 0.0 0.00 0.00 0.00 99 1012.5
20260902061007 14 202 0.0 0.0 0.00 0.00 0.00 99 1012.3
20260902060006 14 202 0.0 0.0 0.00 0.00 0.00 99 1012.2
20260902055006 14 180 0.0 0.0 0.00 0.00 0.00 99 1012.1
20260902054005 14 225 0.0 0.0 0.00 0.00 0.00 99 1012.1
20260902052006 15 270 0.0 0.0 0.00 0.00 0.00 99 1012.1
20260902051006 15 225 0.0 0.0 0.00 0.00 0.00 99 1012.1
20260902050008 15 248 0.0 0.0 0.00 0.00 0.00 99 1012.1
20260902045005 15 161 0.0 0.0 0.00 0.00 0.00 99 1012.0
20260902044006 15 248 0.0 0.0 0.00 0.00 0.00 99 1012.0
20260902043005 15 202 0.0 0.0 0.00 0.00 0.00 99 1012.0
20260902042006 15 248 0.0 0.0 0.00 0.00 0.00 99 1012.2
20260902041005 15 225 0.0 0.0 0.00 0.00 0.00 99 1012.1
20260902040006 16 279 0.0 0.0 0.00 0.00 0.00 99 1012.3
20260902035005 16 180 0.0 0.0 0.00 0.00 0.00 99 1012.4
20260902034005 16 246 0.0 0.0 0.00 0.00 0.00 99 1012.4
20260902033005 16 90 0.0 0.0 0.00 0.00 0.00 99 1012.4
20260902031005 16 237 0.0 0.0 0.00 0.00 0.00 99 1012.5
20260902030006 17 223 0.0 0.0 0.00 0.00 0.00 98 1012.4
20260902025005 17 257 0.0 9.7 0.00 0.00 0.00 98 1012.2
20260902024006 17 294 0.0 11.3 0.00 0.00 0.00 96 1012.2
20260902022005 18 34 11.3 14.5 0.00 0.00 0.00 94 1012.5
20260902021005 18 23 9.7 14.5 0.00 0.00 0.00 93 1012.4
20260902020005 18 31 11.3 16.1 0.00 0.00 0.00 92 1012.6
20260902015005 18 58 11.3 16.1 0.00 0.00 0.00 92 1012.4
20260902014005 18 35 11.3 16.1 0.00 0.00 0.00 93 1012.4
20260902013005 18 35 11.3 16.1 0.00 0.00 0.00 93 1012.5
20260902012005 18 36 9.7 12.9 0.00 0.00 0.00 94 1012.6
20260902011005 18 37 11.3 14.5 0.00 0.00 0.00 94 1012.7
20260902010005 18 68 8.0 11.3 0.00 0.00 0.00 95 1012.7
20260902005005 17 41 4.8 11.3 0.00 0.00 0.00 96 1012.7
20260902004005 17 58 1.6 4.8 0.00 0.00 0.00 99 1012.7
20260902003005 16 22 0.0 0.0 0.00 0.00 0.00 97 1012.8
20260902001005 17 351 0.0 0.0 0.00 0.00 0.00 94 1012.8
20260902000006 18 332 6.4 12.9 0.00 0.00 0.00 92 1012.6
20260901235006 18 39 9.7 14.5 0.00 0.00 0.00 92 1012.6
20260901234016 18 63 11.3 14.5 0.00 0.00 0.00 92 1012.6
20260901233005 18 67 4.8 9.7 0.00 0.00 0.00 91 1012.9
20260901232005 18 32 0.0 8.0 0.00 0.00 0.00 91 1013.0
20260901231006 18 52 0.0 0.0 0.00 0.00 0.00 89 1013.0
20260901230007 18 215 0.0 0.0 0.00 0.00 0.00 89 1012.9
20260901225011 18 225 0.0 0.0 0.00 0.00 0.00 89 1012.9
20260901224005 18 342 0.0 0.0 0.00 0.00 0.00 89 1012.9
20260901223006 18 353 0.0 0.0 0.00 0.00 0.00 88 1013.0
20260901222005 18 286 0.0 0.0 0.00 0.00 0.00 86 1012.9
20260901221005 18 32 0.0 0.0 0.00 0.00 0.00 86 1013.1
20260901220005 18 30 0.0 0.0 0.00 0.00 0.00 84 1013.1
20260901215008 19 24 0.0 0.0 0.00 0.00 0.00 83 1013.1
20260901214007 19 30 0.0 0.0 0.00 0.00 0.00 81 1013.1
20260901213005 19 48 0.0 0.0 0.00 0.00 0.00 81 1013.2
20260901212005 19 24 0.0 0.0 0.00 0.00 0.00 81 1013.0
20260901211005 19 356 0.0 3.2 0.00 0.00 0.00 81 1013.0
20260901210005 20 22 0.0 3.2 0.00 0.00 0.00 80 1012.8
20260901205005 20 31 8.0 11.3 0.00 0.00 0.00 78 1012.7
20260901204005 20 35 9.7 12.9 0.00 0.00 0.00 77 1012.7
20260901203005 20 26 6.4 14.5 0.00 0.00 0.00 77 1012.5
20260901202005 20 57 9.7 16.1 0.00 0.00 0.00 77 1012.3
20260901200004 21 22 8.0 12.9 0.00 0.00 0.00 73 1012.0
20260901195005 21 22 4.8 12.9 0.00 0.00 0.00 71 1012.0
20260901194006 21 40 6.4 14.5 0.00 0.00 0.00 68 1012.0
20260901192005 22 22 9.7 16.1 0.00 0.00 0.00 64 1011.9
20260901191005 22 17 14.5 20.9 0.00 0.00 0.00 64 1011.8
20260901190006 22 12 14.5 24.1 0.00 0.00 0.00 63 1011.7
20260901185006 23 28 17.7 22.5 0.00 0.00 0.00 61 1011.7
20260901184005 23 19 12.9 20.9 0.00 0.00 0.00 59 1011.7
20260901183006 24 45 14.5 20.9 0.00 0.00 0.00 57 1011.6
20260901181005 25 5 14.5 20.9 0.00 0.00 0.00 53 1011.3
20260901174007 26 22 12.9 24.1 0.00 0.00 0.00 51 1011.1
20260901173005 26 22 19.3 24.1 0.00 0.00 0.00 50 1011.0
20260901172005 27 33 12.9 22.5 0.00 0.00 0.00 50 1011.0
20260901171006 27 45 22.5 22.5 0.00 0.00 0.00 49 1010.9
20260901163005 30 287 14.5 20.9 0.00 0.00 0.00 43 1010.5
20260901162004 30 355 9.7 14.5 0.00 0.00 0.00 43 1010.4
20260901155005 30 352 11.3 16.1 0.00 0.00 0.00 44 1010.4
20260901154005 30 19 8.0 14.5 0.00 0.00 0.00 43 1010.4
20260901153005 30 4 8.0 16.1 0.00 0.00 0.00 44 1010.5
20260901152005 30 19 8.0 14.5 0.00 0.00 0.00 44 1010.5
20260901151005 30 67 1.6 16.1 0.00 0.00 0.00 43 1010.5
20260901150005 30 15 9.7 19.3 0.00 0.00 0.00 44 1010.6
20260901145005 30 39 0.0 16.1 0.00 0.00 0.00 43 1010.5
20260901144004 30 41 4.8 19.3 0.00 0.00 0.00 45 1010.5
20260901142005 29 29 14.5 19.3 0.00 0.00 0.00 45 1010.7
20260901141005 30 45 9.7 16.1 0.00 0.00 0.00 46 1010.8
20260901140005 28 347 16.1 20.9 0.00 0.00 0.00 46 1011.0
20260901135005 29 359 12.9 16.1 0.00 0.00 0.00 45 1011.0
20260901134005 29 22 14.5 19.3 0.00 0.00 0.00 46 1011.0
20260901133005 28 41 14.5 19.3 0.00 0.00 0.00 46 1011.1